Location: Costa Mesa
(33.6411°N, 117.9187°W)
Time: 22:32:51
(UTC+00:00)

Thor Agena Rocket - Pass Details

Date: 10 September 2024
Orbit: 757 x 803 km, 99.1° (Epoch: 09 October)

Event Time Altitude Azimuth Distance (km) Brightness Sun altitude
Rises 12:32:46 0° 5° (N) 3,253 7.0 -13.0°
Reaches altitude 10° 12:35:09 10° 358° (N) 2,329 6.2 -12.5°
Maximum altitude 12:39:59 43° 289° (WNW) 1,094 3.9 -11.5°
Drops below altitude 10° 12:44:50 10° 219° (SW) 2,346 5.6 -10.5°
Enters shadow 12:46:32 - 214° (SSW) 2,991 6.1 -10.2°
